Weather History for Iowa City, IA

Change the Weather History Date:

Tuesday, May 14, 2013

  Actual Average Record
Temperature  
Mean Temperature 73 °F 61 °F  
Max Temperature 93 °F 71 °F 93 °F (2013)
Min Temperature 53 °F 50 °F 34 °F (2000)
Degree Days  
Heating Degree Days 0 6  
Month to date heating degree days 128 106  
Since 1 July heating degree days 6391 6299  
Cooling Degree Days 8 1  
Month to date cooling degree days 8 11  
Year to date cooling degree days 18 15  
Growing Degree Days 22 (Base 50)    
Moisture  
Dew Point 54 °F    
Average Humidity 57    
Maximum Humidity 83    
Minimum Humidity 30    
Precipitation  
Precipitation 0.00 in 0.14 in 0.95 in (2011)
Month to date precipitation 3.91 1.97  
Year to date precipitation 17.24 9.85  
Sea Level Pressure  
Sea Level Pressure 29.74 in    
Wind  
Wind Speed 10 mph (SSW)    
Max Wind Speed 24 mph    
Max Gust Speed 36 mph    
Visibility 10 miles    
Events      
T = Trace of Precipitation, MM = Missing Value Source: NWS Daily Summary

Daily Weather History Graph

Daily Weather History Graph

Search for Another Location

Airport:

Trip Planner

Search our weather history database for the weather conditions in past years. The results will help you decide how hot, cold, wet, or windy it might be!

Date:

Astronomy

May. 14, 2013 Rise Set
Actual Time 5:47 AM CDT 8:18 PM CDT
Civil Twilight 5:15 AM CDT 8:49 PM CDT
Nautical Twilight 4:36 AM CDT 9:29 PM CDT
Astronomical Twilight 3:52 AM CDT 10:13 PM CDT
Moon 9:27 AM CDT (5/14) No Moon Set
Length of Visible Light 15h 34m
Length of Day
14h 30m
Waxing Crescent, 19% of the Moon is Illuminated
May 14
Waxing Crescent
May 17
First Quarter
May 24
Full
May 31
Last Quarter
Jun 8
New

Hourly Weather History & Observations

Time (CDT) Temp. Heat Index Dew Point Humidity Pressure Visibility Wind Dir Wind Speed Gust Speed Precip Events Conditions
12:52 AM 60.1 °F - 43.0 °F 53% 29.89 in 10.0 mi South 10.4 mph - N/A   Clear
1:52 AM 57.9 °F - 44.1 °F 60% 29.86 in 10.0 mi South 9.2 mph - N/A   Clear
2:52 AM 57.0 °F - 45.0 °F 64% 29.83 in 10.0 mi South 9.2 mph - N/A   Clear
3:52 AM 55.9 °F - 46.0 °F 69% 29.81 in 10.0 mi South 5.8 mph - N/A   Clear
4:52 AM 54.0 °F - 46.9 °F 77% 29.81 in 10.0 mi Calm Calm - N/A   Clear
5:52 AM 54.0 °F - 48.0 °F 80% 29.80 in 10.0 mi North - - N/A   Clear
6:52 AM 57.0 °F - 51.1 °F 81% 29.81 in 10.0 mi Calm Calm - N/A   Clear
7:52 AM 62.1 °F - 54.0 °F 75% 29.80 in 10.0 mi WSW 3.5 mph - N/A   Clear
8:52 AM 66.9 °F - 55.9 °F 68% 29.79 in 10.0 mi West 8.1 mph - N/A   Clear
9:52 AM 73.0 °F - 57.9 °F 59% 29.79 in 10.0 mi West 9.2 mph - N/A   Clear
10:52 AM 77.0 °F - 59.0 °F 54% 29.78 in 10.0 mi SW 5.8 mph - N/A   Clear
11:52 AM 82.0 °F 83.0 °F 62.1 °F 51% 29.76 in 10.0 mi SSW 8.1 mph - N/A   Clear
12:52 PM 86.0 °F 86.3 °F 62.1 °F 44% 29.74 in 10.0 mi South 5.8 mph - N/A   Clear
1:52 PM 89.1 °F 88.2 °F 59.0 °F 36% 29.72 in 10.0 mi South 9.2 mph - N/A   Clear
2:52 PM 91.0 °F 88.9 °F 55.0 °F 29% 29.69 in 10.0 mi South 17.3 mph 23.0 mph N/A   Clear
3:52 PM 91.9 °F 90.6 °F 57.0 °F 31% 29.67 in 10.0 mi SSW 18.4 mph 26.5 mph N/A   Clear
4:52 PM 91.9 °F 91.5 °F 60.1 °F 34% 29.65 in 10.0 mi South 17.3 mph 27.6 mph N/A   Clear
5:52 PM 91.0 °F 90.9 °F 61.0 °F 36% 29.62 in 10.0 mi SSW 19.6 mph 26.5 mph N/A   Clear
6:52 PM 88.0 °F 86.9 °F 57.9 °F 36% 29.62 in 10.0 mi SSW 15.0 mph 26.5 mph N/A   Clear
7:52 PM 84.9 °F 83.9 °F 57.0 °F 38% 29.62 in 10.0 mi North - - N/A   Clear
8:52 PM 80.1 °F 80.4 °F 57.0 °F 45% 29.63 in 10.0 mi SSW 5.8 mph - N/A   Clear
9:52 PM 79.0 °F - 57.0 °F 47% 29.64 in 10.0 mi SSW 11.5 mph - N/A   Clear
10:52 PM 77.0 °F - 55.0 °F 47% 29.65 in 10.0 mi SW 11.5 mph - N/A   Clear
11:52 PM 79.0 °F - 51.1 °F 38% 29.67 in 10.0 mi SW 16.1 mph 24.2 mph N/A   Clear